Regional Weather Roundup
Issued by NWS

Home | Current Version | Previous Version | Text Only | Print | Product List | Glossary Off
Versions: 1 2 3 4 5 6 7 8 9 10 11 12 13 14 15 16 17 18 19 20 21 22 23 24 25 26 27 28 29 30 31 32 33 34 35 36 37 38 39 40 41 42 43 44 45 46 47 48 49 50

000
ASUS43 KLOT 291603
RWRIL

ILLINOIS REGIONAL WEATHER ROUNDUP
NATIONAL WEATHER SERVICE CHICAGO/ROMEOVILLE IL
1100 AM CDT FRI JUL 29 2016

NOTE: "FAIR" INDICATES FEW OR NO CLOUDS BELOW 12,000 FEET WITH NO
SIGNIFICANT WEATHER AND/OR OBSTRUCTIONS TO VISIBILITY.

* THESE STATIONS ARE NOT UNDER NWS QUALITY CONTROL. THEY ALSO MAY NOT
  REPORT WEATHER SUCH AS PRECIPITATION OR FOG.

ILZ001-002-007-009-015-016-024-291700-
NORTHWEST ILLINOIS

CITY           SKY/WX    TMP DP  RH WIND       PRES   REMARKS
MOLINE         CLOUDY    77  68  73 W7        29.94S
STERLING*      CLOUDY    72  69  90 E3        29.96S
SAVANNA*       CLOUDY    72  67  85 E7        29.96S
$$

ILZ003-004-008-010-011-017-018-291700-
NORTH CENTRAL ILLINOIS

CITY           SKY/WX    TMP DP  RH WIND       PRES   REMARKS
ROCKFORD       CLOUDY    77  68  73 NE6       29.97R
FREEPORT*      CLOUDY    71  67  89 NE6       29.99R
ROCHELLE*      CLOUDY    73  69  88 CALM      29.96R
DE KALB*       CLOUDY    78  70  77 SE5       29.96F HX  80
$$

ILZ005-006-012>014-019>023-291700-
NORTHEAST ILLINOIS

CITY           SKY/WX    TMP DP  RH WIND       PRES   REMARKS
CHICAGO-OHARE  CLOUDY    79  70  74 NE8       29.94R HX  82
CHICAGO-MIDWAY PTSUNNY   82  68  62 E8        29.93R HX  85
AURORA         CLOUDY    81  70  69 E7        29.94S HX  84
LANSING*       CLOUDY    82  68  62 CALM      29.94R HX  85
WAUKEGAN       CLOUDY    74  68  81 NE9       29.96R
DUPAGE AIRPORT CLOUDY    80  69  69 NE7       29.94R HX  83
KANKAKEE*      CLOUDY    80  72  75 S3        29.94S HX  84
WHEELING       CLOUDY    76  68  76 NE8       29.96R
MORRIS*        CLOUDY    78  70  78 CALM      29.93S
NORTHERLY ISL    N/A     76  69  79 NE7         N/A
$$

LMZ740>746-291700-
SOUTHERN LAKE MICHIGAN

STATION/POSITION SKY/WX   TEMP    WIND        PRES    VSBY  WAVE
                          AIR SEA DIR/SP/G                  HT/PER
                          (F)     (DEG/KT/KT) (MB)    (MI)  (FT/S)
SOUTHERN BUOY              70 74   90/ 16/ 17 1013.7          4/ 5
WILMETTE HARBOR            74 73  100/  6/ 10   N/A           2/ 6
HARRISON CRIB              75      70/  7/  7   N/A
BURNHAM HARBOR             77      40/  5/  7   N/A
CALUMET HARBOR             76      40/  5/  7 1013.0F
BURNS HARBOR               75      40/  4/  6 1014.2R
MICHIGAN CITY              77     320/  3/  3   N/A
MICHIGAN CITY 6N           74 77   40/  2/  4   N/A           1/ 6
ST. JOSEPH                 74 76   70/  6/ 10 1013.6R         2
$$

ILZ025>027-034>036-040-047-049-050-058-095>099-291700-
WEST-CENTRAL ILLINOIS

CITY           SKY/WX    TMP DP  RH WIND       PRES   REMARKS
QUINCY         MOSUNNY   76  70  82 NW8       29.98R
GALESBURG*     CLOUDY    72  68  85 W7        29.96S
MACOMB*        CLOUDY    69  68  96 W8        30.00R
JACKSONVILLE*  CLOUDY    76  69  79 W8        29.96S
PITTSFIELD*    CLOUDY    76  69  80 W7        29.99R
$$

ILZ028>032-037-038-041>044-048-051>054-059>061-291700-
CENTRAL ILLINOIS

CITY           SKY/WX    TMP DP  RH WIND       PRES   REMARKS
PONTIAC        PTSUNNY   79  74  85 CALM      29.95S HX  83
BLOOMINGTON    CLOUDY    76  70  82 W5        29.96S
DECATUR        CLOUDY    79  68  69 NW5       29.94F HX  81
PEORIA         CLOUDY    73  69  87 W7        29.95S
LACON*         CLOUDY    73  69  87 SW5       29.93F
LINCOLN*       CLOUDY    77  71  80 W3        29.94F
SPRINGFIELD    CLOUDY    79  69  71 W7        29.95F HX  81
TAYLORVILLE    CLOUDY    75  71  89 MISG      29.96S
$$

ILZ033-039-045-046-055>057-062-063-291700-
EAST-CENTRAL ILLINOIS

CITY           SKY/WX    TMP DP  RH WIND       PRES   REMARKS
CHAMPAIGN      CLOUDY    77  72  84 W7        29.95S
MATTOON        MOSUNNY   80  71  74 W7        29.94S HX  84
PARIS*         MOSUNNY   81  74  77 CALM      29.94F HX  86
$$

ILZ079-100>102-291700-
SOUTHWEST ILLINOIS

CITY           SKY/WX    TMP DP  RH WIND       PRES   REMARKS
ALTON          PTSUNNY   77  68  73 NE6       29.96F
BELLEVILLE     MOSUNNY   84  72  68 NW5       29.94S HX  89
CAHOKIA*       MOSUNNY   84  68  58 CALM      29.95F HX  87
SPARTA*        CLOUDY    79  72  78 CALM      29.98R HX  83
$$

ILZ064>066-069>071-074>076-080>082-084>086-088>090-092>094-291700-
SOUTH-CENTRAL ILLINOIS

CITY           SKY/WX    TMP DP  RH WIND       PRES   REMARKS
CARBONDALE     PTSUNNY   81  72  74 W5        29.96R HX  85
CAIRO*         CLOUDY    77  73  85 SW5       29.96R
EFFINGHAM*     PTSUNNY   82  74  77 W3        29.96S HX  88
MARION         PTSUNNY   82  77  83 S5        29.96S HX  91
MT. VERNON     PTSUNNY   82  72  69 MISG      29.95S HX  87
CENTRALIA*     PTSUNNY   82  74  76 CALM      29.95S HX  89
SALEM*         PTSUNNY   83  74  74 CALM      29.95S HX  89
METROPOLIS*    PTSUNNY   82  74  75 W7        29.96S HX  88
$$

ILZ067-068-072-073-078-083-087-091-291700-
SOUTHEAST ILLINOIS

CITY           SKY/WX    TMP DP  RH WIND       PRES   REMARKS
LAWRENCEVILLE  MOSUNNY   81  74  79 VRB5      29.94F HX  86
FLORA*         MOSUNNY   82  76  79 S3        29.95S HX  90
FAIRFIELD*     SUNNY     80  73  77 CALM      29.94S HX  84
HARRISBURG*    MOSUNNY   81  74  80 CALM      29.95S HX  87
ROBINSON*      SUNNY     81  73  76 CALM      29.94S HX  86
CARMI*         MOSUNNY   80  74  81 CALM      29.94S HX  85
$$

ABBREVIATIONS USED IN REMARKS
   TC - TEMPERATURE IN CELSIUS
  WCI - WIND CHILL INDEX
   HX - HEAT INDEX
  VSB - VISIBILITY
$$





USA.gov is the U.S. government's official web portal to all federal, state and local government web resources and services.